Content
SEND FEEDBACK

Daily
Averages
Monthly
Summary
United States of America

HERMIT, COLORADO


Home > North America > United States > Colorado
Elevation: 9506 feet     Latitude: 37 45N     Longitude: 107 07W

WEATHER
 
SELECT A DAY
Number of Records: 255,379;   Date Range: 8/29/01 - 9/22/14
 
SHARE

PRINT THIS DATA

[ ← Previous Day ]
WEATHER ALMANAC - JANUARY 23, 2013
[ Next Day → ]
[ °C ]   °F
Weather ElementAverageHighLow
Temperature33.1 °F41 °F (10:09 am)26.6 °F (11:49 pm)
Dewpoint-21.8 °F-5.8 °F (3:29 pm)-41.8 °F (1:49 am)
Humidity10.6 %24 % (11:49 pm)4 % (12:29 am)
Barometer30.50 in30.54 in (9:29 am)30.47 in (9:29 pm)
Wind Speed10.8 mph21.9 mph (11:09 pm)
Wind Gust26.5 mph (11:49 pm)
Weather ElementAverage
Visibility10 mi
Wind DirectionSSW (196.8 °)

Weather ElementTotal
Precipitation---
Heating Degree Days31.2 (Base 65)
Averaged from 71 records on January 23, 2013
WEATHER CONDITIONS BREAKOUT
WIND DIRECTION BREAKOUT
WEATHER BY HOUR - JANUARY 23, 2013
[ °C ]   °F
Local TimeTemperatureDewpointHumidityBarometerVisibilityWind DirectionWind SpeedGust SpeedPrecipitationEventsConditions
12:29 AM32.0 °F-40.0 °F4 %30.49 in10.0 miCalmClear
12:49 AM30.2 °F-36.4 °F5 %30.48 in10.0 miNE (40°)4.6 mphClear
1:09 AM30.2 °F-36.4 °F5 %30.48 in10.0 miENE (60°)4.6 mphClear
1:29 AM32.0 °F-38.2 °F4 %30.49 in10.0 miEast (90°)6.9 mphClear
1:49 AM32.0 °F-41.8 °F4 %30.49 in10.0 miCalmClear
2:09 AM30.2 °F-41.8 °F4 %30.49 in10.0 miCalmClear
2:29 AM32.0 °F-41.8 °F4 %30.49 in10.0 miSSW (200°)3.5 mphClear
2:49 AM32.0 °F-41.8 °F4 %30.49 in10.0 miSSW (210°)5.8 mphClear
3:09 AM32.0 °F-41.8 °F4 %30.49 in10.0 miSSW (210°)6.9 mphClear
3:29 AM32.0 °F-40.0 °F4 %30.49 in10.0 miSW (220°)8.1 mphClear
3:49 AM32.0 °F-38.2 °F4 %30.49 in10.0 miSW (220°)9.2 mphClear
4:09 AM30.2 °F-36.4 °F5 %30.48 in10.0 miSW (220°)8.1 mphClear
4:29 AM32.0 °F-34.6 °F5 %30.49 in10.0 miSW (230°)10.4 mphClear
4:49 AM30.2 °F-34.6 °F5 %30.49 in10.0 miSW (230°)9.2 mphClear
5:09 AM30.2 °F-32.8 °F5 %30.49 in10.0 miWSW (240°)10.4 mphClear
5:29 AM32.0 °F-36.4 °F4 %30.49 in10.0 miSW (230°)6.9 mphClear
5:49 AM32.0 °F-38.2 °F4 %30.49 in10.0 miWSW (250°)8.1 mphClear
6:09 AM32.0 °F-38.2 °F4 %30.49 in10.0 miWSW (250°)6.9 mphClear
6:29 AM32.0 °F-40.0 °F4 %30.50 in10.0 miWSW (240°)9.2 mphClear
6:49 AM32.0 °F-38.2 °F4 %30.50 in10.0 miWest (270°)9.2 mphClear
7:09 AM32.0 °F-34.6 °F5 %30.50 in10.0 miWest (270°)10.4 mphClear
7:29 AM32.0 °F-36.4 °F4 %30.52 in10.0 miWest (280°)6.9 mphClear
7:49 AM32.0 °F-38.2 °F4 %30.52 in10.0 miWest (260°)8.1 mphClear
8:09 AM33.8 °F-34.6 °F4 %30.52 in10.0 miWSW (250°)9.2 mphClear
8:29 AM32.0 °F-32.8 °F5 %30.52 in10.0 miWSW (240°)5.8 mphClear
8:49 AM35.6 °F-29.2 °F5 %30.52 in10.0 miWest (260°)4.6 mphClear
9:09 AM37.4 °F-32.8 °F4 %30.52 in10.0 miCalmClear
9:29 AM37.4 °F-32.8 °F4 %30.54 in10.0 miCalmClear
9:49 AM37.4 °F-25.6 °F6 %30.54 in10.0 miCalmClear
10:09 AM41.0 °F-25.6 °F5 %30.54 in10.0 miCalmClear
10:29 AM41.0 °F-20.2 °F7 %30.54 in10.0 miSW (230°)3.5 mphClear
10:49 AM39.2 °F-20.2 °F7 %30.54 in10.0 miSSW (200°)5.8 mphClear
11:08 AM41.0 °F-14.8 °F9 %30.54 in10.0 miSW (220°)9.2 mphClear
11:29 AM41.0 °F-14.8 °F9 %30.53 in10.0 miSSW (210°)9.2 mphClear
11:49 AM41.0 °F-14.8 °F9 %30.52 in10.0 miSW (220°)8.1 mphClear
12:09 PM41.0 °F-14.8 °F9 %30.51 in10.0 miSouth (190°)8.1 mphClear
12:29 PM41.0 °F-11.2 °F11 %30.50 in10.0 miSouth (190°)6.9 mph16.1 mphClear
12:49 PM41.0 °F-9.4 °F12 %30.49 in10.0 miSSW (200°)11.5 mph16.1 mphClear
1:09 PM39.2 °F-13.0 °F10 %30.49 in10.0 miSW (220°)15.0 mph19.6 mphClear
1:29 PM37.4 °F-13.0 °F11 %30.49 in10.0 miSSW (210°)10.4 mph20.7 mphClear
1:49 PM37.4 °F-14.8 °F10 %30.49 in10.0 miSW (220°)15.0 mph21.9 mphClear
2:09 PM35.6 °F-14.8 °F11 %30.49 in10.0 miSW (220°)10.4 mph24.2 mphClear
2:29 PM35.6 °F-9.4 °F14 %30.49 in10.0 miSSW (200°)10.4 mph17.3 mphClear
2:49 PM33.8 °F-9.4 °F15 %30.49 in10.0 miSW (220°)11.5 mph18.4 mphClear
3:09 PM35.6 °F-9.4 °F14 %30.49 in10.0 miSW (220°)10.4 mph18.4 mphClear
3:29 PM35.6 °F-5.8 °F17 %30.49 in10.0 miSW (220°)13.8 mph17.3 mphClear
3:49 PM35.6 °F-7.6 °F16 %30.49 in10.0 miSW (220°)15.0 mph18.4 mphClear
4:09 PM33.8 °F-7.6 °F17 %30.49 in10.0 miSW (220°)17.3 mphClear
4:29 PM32.0 °F-13.0 °F14 %30.49 in10.0 miSW (230°)17.3 mph23.0 mphClear
4:49 PM32.0 °F-11.2 °F15 %30.49 in10.0 miSW (220°)13.8 mphClear
5:09 PM32.0 °F-13.0 °F14 %30.49 in10.0 miSW (220°)16.1 mphClear
5:29 PM30.2 °F-14.8 °F14 %30.49 in10.0 miSW (220°)15.0 mphClear
5:49 PM30.2 °F-14.8 °F14 %30.49 in10.0 miSW (230°)16.1 mphClear
6:09 PM30.2 °F-14.8 °F14 %30.49 in10.0 miSW (230°)19.6 mphClear
6:29 PM30.2 °F-14.8 °F14 %30.49 in10.0 miSW (230°)20.7 mphClear
6:49 PM30.2 °F-13.0 °F15 %30.49 in10.0 miSW (220°)19.6 mphClear
7:09 PM30.2 °F-13.0 °F15 %30.49 in10.0 miWSW (240°)19.6 mphClear
7:29 PM32.0 °F-9.4 °F17 %30.49 in10.0 miSW (230°)20.7 mphClear
7:49 PM32.0 °F-9.4 °F17 %30.48 in10.0 miSW (230°)18.4 mphClear
8:09 PM30.2 °F-11.2 °F16 %30.48 in10.0 miSW (220°)17.3 mphClear
8:29 PM30.2 °F-9.4 °F18 %30.48 in10.0 miSW (220°)18.4 mphClear
8:49 PM28.4 °F-9.4 °F19 %30.48 in10.0 miSW (220°)17.3 mphClear
9:09 PM30.2 °F-9.4 °F18 %30.48 in10.0 miSW (220°)17.3 mphClear
9:29 PM28.4 °F-7.6 °F21 %30.47 in10.0 miSSW (210°)15.0 mphClear
9:49 PM28.4 °F-7.6 °F21 %30.47 in10.0 miSW (220°)15.0 mphClear
10:09 PM30.2 °F-7.6 °F19 %30.47 in10.0 miSW (220°)12.7 mphClear
10:29 PM28.4 °F-5.8 °F23 %30.47 in10.0 miSW (220°)16.1 mphClear
10:49 PM28.4 °F-5.8 °F23 %30.48 in10.0 miSW (230°)18.4 mph23.0 mphClear
11:09 PM28.4 °F-5.8 °F23 %30.48 in10.0 miSW (230°)21.9 mph25.3 mphClear
11:29 PM28.4 °F-5.8 °F23 %30.48 in10.0 miSW (230°)18.4 mph25.3 mphClear
11:49 PM26.6 °F-5.8 °F24 %30.47 in10.0 miSW (230°)19.6 mph26.5 mphClear
Hourly data recorded from KCPW, located miles away from Hermit, Colorado







STORIES FROM OUR PARTNERS